Regional Weather Roundup
Issued by NWS

Home | Current Version | Previous Version | Graphics & Text | Print | Product List | Glossary On
Versions: 1 2 3 4 5 6 7 8 9 10 11 12 13 14 15 16 17 18 19 20 21 22 23 24 25 26 27 28 29 30 31 32 33 34 35 36 37 38 39 40 41 42 43 44 45 46 47 48 49 50
000
ASUS43 KIND 300609
RWRIN

WEATHER ROUNDUP FOR INDIANA
NATIONAL WEATHER SERVICE INDIANAPOLIS IN
200 AM EDT TUE JUN 30 2015

NOTE: "FAIR" INDICATES FEW OR NO CLOUDS BELOW 12,000 FEET WITH NO
SIGNIFICANT WEATHER AND/OR OBSTRUCTIONS TO VISIBILITY.

* - STATION DOES NOT REPORT WEATHER SUCH AS PRECIPITATION OR FOG.

+ - STATION NOT QUALITY CONTROLLED BY THE NATIONAL WEATHER SERVICE.
    USE DATA WITH CAUTION...ESPECIALLY DEWPOINT AND RELATIVE
    HUMIDITY OBSERVATIONS.

INZ001>003-010>013-019-020-300700-
NORTHWEST INDIANA

CITY           SKY/WX    TMP DP  RH WIND       PRES   REMARKS
GARY /AIRPORT/ PTCLDY    66  66 100 CALM      29.80S FOG
KNOX *+        PTCLDY    61  61 100 S3        29.81F
LA PORTE +     CLOUDY    64  64 100 S3        29.82S
6HR MIN TEMP:  64; 6HR MAX TEMP:  70;

MICHIGAN CITY+ CLEAR     63  63 100 S6        29.81S
MONTICELLO +   FOG       64  64 100 CALM      29.81F VSB 1
6HR MIN TEMP:  63; 6HR MAX TEMP:  69;

RENSSELAER +   PTCLDY    63  63 100 S5        29.82S FOG
VALPARAISO     MOCLDY    63  61  93 S5        29.81F
6HR MIN TEMP:  63; 6HR MAX TEMP:  70;


$$

LMZ046-743>745-300700-
SOUTHERN LAKE MICHIGAN

STATION/POSITION TIME  TEMP    WIND        PRES    WAVE
                       AIR SEA DIR/SP/G            HT
                 (UTC) (F)     (DEG/KT/KT) (MB)    (FT)
BURNS HARBOR     0600   65     180/  8/ 13 1009.8S
MICHIGAN CITY    0600   63     140/  9/ 12   N/A
5NW MICH CITY    0600   64 65  180/ 10/ 12   N/A     1

$$

INZ004-005-014>016-021>024-300700-
NORTH CENTRAL INDIANA

CITY           SKY/WX    TMP DP  RH WIND       PRES   REMARKS
GOSHEN         CLOUDY    60  58  92 CALM      29.83R FOG
6HR MIN TEMP:  57; 6HR MAX TEMP:  64;

LOGANSPORT +   CLOUDY    61  59  94 SE3       29.83F FOG
PERU/GRISSOM   PTCLDY    61  59  94 S3        29.82S
ROCHESTER +    CLEAR     63  63 100 S3        29.83S
SOUTH BEND     CLOUDY    62  59  90 SE6       29.82F
6HR MIN TEMP:  62; 6HR MAX TEMP:  68;

WARSAW +         N/A     55  55 100 CALM      29.83S FOG

$$

INZ006>009-017-018-025>027-300700-
NORTHEAST INDIANA

CITY           SKY/WX    TMP DP  RH WIND       PRES   REMARKS
ANGOLA *+      CLOUDY    63  52  67 CALM      29.83S
AUBURN +       FOG       57  55  94 CALM      29.83F VSB 1
FORT WAYNE     MOCLDY    59  57  93 CALM      29.83S FOG
6HR MIN TEMP:  58; 6HR MAX TEMP:  65;

HUNTINGTON +   CLEAR     61  60  96 CALM      29.82F
6HR MIN TEMP:  58; 6HR MAX TEMP:  64;


$$

INZ028-029-035-036-043>045-051>053-300700-
WEST CENTRAL INDIANA

CITY           SKY/WX    TMP DP  RH WIND       PRES   REMARKS
CRAWFORDSVL +  PTCLDY    61  60  97 S5        29.85S
6HR MIN TEMP:  61; 6HR MAX TEMP:  70; 6HR PCP:  0.01;

GREENCASTLE +  PTCLDY    63  59  88 CALM      29.86R FOG
LAFAYETTE      PTCLDY    62  62 100 CALM      29.82S FOG
6HR MIN TEMP:  62; 6HR MAX TEMP:  68; 6HR PCP: TRACE;

TERRE HAUTE    CLEAR     67  64  90 W3        29.84S
6HR MIN TEMP:  67; 6HR MAX TEMP:  76;


$$

INZ030>032-037>040-046>048-054>057-064-065-300700-
CENTRAL INDIANA

CITY           SKY/WX    TMP DP  RH WIND       PRES   REMARKS
CP ATTERBURY + PTCLDY    64  63  94 SW6       29.85F
FISHERS *+     PTCLDY    61  61 100 CALM      29.84S
FRANKFORT +    FOG      N/A N/A N/A CALM      29.85F VSB 3/4
GREENWOOD *+   CLEAR     64  61  88 W3        29.85S
INDIANAPOLIS   MOCLDY    65  62  90 SW8       29.83S
6HR MIN TEMP:  65; 6HR MAX TEMP:  74; 6HR PCP: TRACE;

-EAGLE CREEK   CLOUDY    67  63  87 W7        29.83S
6HR MIN TEMP:  66; 6HR MAX TEMP:  73; 6HR PCP: TRACE;

KOKOMO *+      CLEAR     63  59  88 CALM      29.82F
6HR MIN TEMP:  63; 6HR MAX TEMP:  70;

MARION +       CLEAR     60  60  98 CALM      29.83F FOG
MT COMFORT *+  CLEAR     64 N/A N/A CALM      29.84S
SHELBYVILLE    CLEAR     68  64  87 SW6       29.83S
6HR MIN TEMP:  67; 6HR MAX TEMP:  74; 6HR PCP: TRACE;

ZIONSVILLE +   CLEAR     64  62  91 W3        29.85S FOG
6HR MIN TEMP:  64; 6HR MAX TEMP:  73; 6HR PCP:  0.03;


$$

INZ033-034-041-042-049-050-058-059-300700-
EAST CENTRAL INDIANA

CITY           SKY/WX    TMP DP  RH WIND       PRES   REMARKS
MUNCIE         PTCLDY    64  61  90 S3        29.83F
6HR MIN TEMP:  64; 6HR MAX TEMP:  70;


$$

INZ060-061-067>069-081>083-085>088-300700-
SOUTHWEST INDIANA

CITY           SKY/WX    TMP DP  RH WIND       PRES   REMARKS
EVANSVILLE     PTCLDY    69  65  86 SW5       29.88R
6HR MIN TEMP:  67; 6HR MAX TEMP:  80;

HUNTINGBURG *+ CLEAR     66  63  88 W3        29.87S
6HR MIN TEMP:  66; 6HR MAX TEMP:  77;

WASHINGTON +   CLEAR     67  64  87 W7        29.85S
6HR MIN TEMP:  66; 6HR MAX TEMP:  76;


$$

INZ062-063-066-070>080-084-089>092-300700-
SOUTH CENTRAL AND SOUTHEAST INDIANA

CITY           SKY/WX    TMP DP  RH WIND       PRES   REMARKS
BLOOMINGTON    CLEAR     65  64  97 W3        29.86F
6HR MIN TEMP:  65; 6HR MAX TEMP:  74; 6HR PCP: TRACE;

MADISON *+     CLEAR     64  63  94 CALM      29.88S
NORTH VERNON + CLEAR     66  66 100 W6        29.85F
SEYMOUR +      CLEAR     68  64  88 W7        29.84F

$$




USA.gov is the U.S. government's official web portal to all federal, state and local government web resources and services.